| time (UTC) | temp F | wind direction | speed MPH | gust MPH | rain 1hr in | rain 24hr in | rain mn in | humidity % | barometer mb |
| 20260504081550 | 48 | 350 | 9.0 | 13.0 | 0.00 | 0.00 | 0.00 | 71 | 995.0 |
| 20260504050015 | 56 | 215 | 17.0 | 22.0 | 0.00 | 0.00 | 0.00 | 53 | 993.3 |
| 20260504044509 | 55 | 206 | 14.0 | 19.0 | 0.00 | 0.00 | 0.00 | 55 | 993.5 |
| 20260504043007 | 54 | 215 | 12.0 | 17.0 | 0.00 | 0.00 | 0.00 | 56 | 993.6 |
| 20260504041505 | 54 | 220 | 11.0 | 15.0 | 0.00 | 0.00 | 0.00 | 56 | 994.0 |
| 20260504040004 | 55 | 211 | 11.0 | 18.0 | 0.00 | 0.00 | 0.00 | 54 | 994.3 |
| 20260504034502 | 57 | 211 | 13.0 | 19.0 | 0.00 | 0.00 | 0.00 | 51 | 994.4 |
| 20260504033002 | 57 | 201 | 13.0 | 18.0 | 0.00 | 0.00 | 0.00 | 50 | 994.7 |
| 20260504031602 | 58 | 210 | 14.0 | 20.0 | 0.00 | 0.00 | 0.00 | 48 | 995.2 |
| 20260504030057 | 58 | 200 | 13.0 | 17.0 | 0.00 | 0.00 | 0.00 | 48 | 995.3 |
| 20260504024555 | 59 | 206 | 12.0 | 18.0 | 0.00 | 0.00 | 0.00 | 47 | 995.5 |
| 20260504023054 | 60 | 202 | 13.0 | 19.0 | 0.00 | 0.00 | 0.00 | 45 | 995.7 |
| 20260504021554 | 60 | 184 | 12.0 | 15.0 | 0.00 | 0.00 | 0.00 | 44 | 995.7 |
| 20260504020127 | 59 | 198 | 10.0 | 13.0 | 0.00 | 0.00 | 0.00 | 45 | 996.0 |
| 20260504014600 | 60 | 197 | 8.0 | 11.0 | 0.00 | 0.00 | 0.00 | 44 | 996.2 |
| 20260504013058 | 62 | 199 | 8.0 | 11.0 | 0.00 | 0.00 | 0.00 | 40 | 996.4 |
| 20260504011547 | 64 | 198 | 9.0 | 12.0 | 0.00 | 0.00 | 0.00 | 37 | 996.6 |
| 20260504010046 | 66 | 193 | 9.0 | 11.0 | 0.00 | 0.00 | 0.00 | 34 | 997.1 |
| 20260504004610 | 68 | 210 | 9.0 | 16.0 | 0.00 | 0.00 | 0.00 | 32 | 997.4 |
| 20260504003048 | 68 | 221 | 11.0 | 15.0 | 0.00 | 0.00 | 0.00 | 30 | 997.8 |
| 20260504001555 | 69 | 223 | 15.0 | 24.0 | 0.00 | 0.00 | 0.00 | 28 | 998.0 |
| 20260504000035 | 70 | 229 | 12.0 | 22.0 | 0.00 | 0.00 | 0.00 | 26 | 998.2 |
| 20260503234533 | 71 | 228 | 14.0 | 20.0 | 0.00 | 0.00 | 0.00 | 26 | 998.7 |
| 20260503233035 | 71 | 222 | 14.0 | 24.0 | 0.00 | 0.00 | 0.00 | 24 | 999.1 |
| 20260503231529 | 72 | 246 | 18.0 | 23.0 | 0.00 | 0.00 | 0.00 | 24 | 999.3 |
| 20260503230033 | 72 | 255 | 14.0 | 22.0 | 0.00 | 0.00 | 0.00 | 23 | 999.4 |
| 20260503224525 | 72 | 234 | 16.0 | 25.0 | 0.00 | 0.00 | 0.00 | 22 | 999.5 |
| 20260503223023 | 72 | 219 | 13.0 | 23.0 | 0.00 | 0.00 | 0.00 | 21 | 999.6 |
| 20260503221523 | 72 | 244 | 16.0 | 24.0 | 0.00 | 0.00 | 0.00 | 20 | 1000.0 |
| 20260503220020 | 72 | 242 | 18.0 | 23.0 | 0.00 | 0.00 | 0.00 | 21 | 1000.2 |
| 20260503214519 | 72 | 248 | 13.0 | 28.0 | 0.00 | 0.00 | 0.00 | 23 | 1000.4 |
| 20260503213016 | 72 | 244 | 13.0 | 24.0 | 0.00 | 0.00 | 0.00 | 22 | 1000.9 |
| 20260503211513 | 72 | 236 | 19.0 | 26.0 | 0.00 | 0.00 | 0.00 | 24 | 1001.3 |
| 20260503210011 | 71 | 245 | 13.0 | 21.0 | 0.00 | 0.00 | 0.00 | 24 | 1001.6 |
| 20260503204509 | 71 | 236 | 11.0 | 21.0 | 0.00 | 0.00 | 0.00 | 25 | 1001.7 |
| 20260503203018 | 70 | 233 | 12.0 | 19.0 | 0.00 | 0.00 | 0.00 | 25 | 1002.0 |
| 20260503201504 | 70 | 263 | 11.0 | 22.0 | 0.00 | 0.00 | 0.00 | 28 | 1002.4 |
| 20260503200001 | 69 | 233 | 11.0 | 18.0 | 0.00 | 0.00 | 0.00 | 27 | 1002.8 |
| 20260503194559 | 70 | 227 | 15.0 | 20.0 | 0.00 | 0.00 | 0.00 | 26 | 1003.0 |
| 20260503193058 | 68 | 265 | 8.0 | 16.0 | 0.00 | 0.00 | 0.00 | 29 | 1003.3 |
| 20260503191556 | 68 | 254 | 8.0 | 17.0 | 0.00 | 0.00 | 0.00 | 30 | 1003.5 |
| 20260503190101 | 68 | 284 | 10.0 | 15.0 | 0.00 | 0.00 | 0.00 | 31 | 1003.8 |
| 20260503184552 | 67 | 246 | 11.0 | 24.0 | 0.00 | 0.00 | 0.00 | 32 | 1004.0 |
| 20260503183048 | 67 | 312 | 9.0 | 15.0 | 0.00 | 0.00 | 0.00 | 32 | 1004.5 |
| 20260503181554 | 67 | 248 | 9.0 | 17.0 | 0.00 | 0.00 | 0.00 | 35 | 1004.6 |
| 20260503180051 | 66 | 261 | 9.0 | 22.0 | 0.00 | 0.00 | 0.00 | 32 | 1004.8 |
| 20260503174543 | 66 | 294 | 10.0 | 17.0 | 0.00 | 0.00 | 0.00 | 35 | 1005.2 |
| 20260503173041 | 65 | 276 | 11.0 | 18.0 | 0.00 | 0.00 | 0.00 | 35 | 1005.6 |
| 20260503171536 | 65 | 342 | 6.0 | 18.0 | 0.00 | 0.00 | 0.00 | 35 | 1005.9 |